[[{"header":{"parameterUnit":"m.s-1","parameterCategory":1,"la1":30.2991,"la2":30.254,"lo1":-89.0895,"lo2":-89.0444,"dy":0.0017,"dx":0.0017,"nx":28,"ny":28,"refTime":"2025-12-25T09:00:00:Z","depth":0,"parameterNumber":2,"parameterNumberName":"U-component_of_WINDS"},"data":[0,0,0,0,0,0,0,0,0,0,0,0,0,0,0,0,0,0,0,0,0,0,0,0,0,0,0,0,0,0,0,0,0,0,0,0,0,0,0,0,0,0,0,0,0,0,0,0,0,0,0,0,0,0,0,0,0,0,2.9097,2.9099,0,2.9235,2.9237,2.9238,2.9212,2.9209,2.9207,2.9204,2.9354,2.936,2.9366,0,0,0,0,0,0,0,0,0,0,0,0,0,2.8819,2.8825,2.9097,2.9099,2.9101,2.9235,2.9237,2.9239,2.9212,2.9209,2.9206,2.9203,2.9352,2.9359,2.9367,0,0,0,0,0,0,0,0,0,0,0,0,0,2.8947,2.8826,2.9097,2.9103,2.9105,2.9235,2.9237,2.9239,2.9213,2.9209,2.9205,2.9202,2.9349,2.9358,2.9368,2.9501,0,0,2.9397,2.9401,0,0,0,0,0,0,0,0,2.894,2.8957,2.9101,2.9103,2.9106,2.9202,2.9194,2.9327,2.9214,2.9172,2.9204,2.92,2.9307,2.932,2.9354,2.9508,2.9515,2.9397,2.9403,2.9407,2.941,0,0,0,0,0,0,0,2.8931,2.8951,2.9152,2.9103,2.9106,2.9102,2.9116,2.9219,2.9259,2.9176,2.9174,2.919,2.9308,2.9345,2.9357,2.9517,2.9397,2.9406,2.9411,2.9415,2.9791,2.9795,0,0,0,0,0,0,2.8919,2.8944,2.9148,2.9156,2.9012,2.911,2.9126,2.9175,2.9258,2.9267,2.9193,2.9189,2.9331,2.9346,2.9362,2.9526,2.9407,2.9416,2.9421,2.9787,2.9792,2.9796,0,0,0,0,0,0,2.8913,2.8937,2.9142,2.905,2.9075,2.9119,2.9175,2.918,2.9217,2.9271,2.9279,2.9224,2.9328,2.9349,2.9467,2.953,2.942,2.9429,2.9782,2.9788,2.9794,2.9852,0,0,0,0,0,0,2.8905,2.8935,2.8984,2.9051,2.908,2.9242,2.9178,2.9185,2.9233,2.9228,2.9302,2.9311,2.9327,2.9453,2.9476,2.9541,2.9436,2.9776,2.9785,2.9792,2.9845,2.986,2.9873,0,0,0,0,0,2.8895,2.8996,2.8987,2.9012,2.9142,2.9245,2.9263,2.9277,2.9238,2.9289,2.9324,2.9308,2.952,2.9465,2.9491,2.956,2.9772,2.9782,2.9792,2.9838,2.9857,2.9872,0,0,0,0,0,0,2.8938,2.9005,2.8995,2.912,2.9177,2.924,2.9305,2.9296,2.9367,2.9359,2.9377,2.9394,2.9514,2.9549,2.9487,2.9695,2.9641,2.9656,2.9668,2.9685,2.9699,2.9688,2.9444,0,0,0,0,0,2.8961,2.9037,2.9093,2.9198,2.9227,2.9261,2.9307,2.9313,2.9374,2.9398,2.9442,2.9504,2.9584,2.9637,2.9714,2.985,2.9867,2.9911,2.9925,2.9936,2.9949,3.0026,3.0046,2.9828,2.9828,2.9828,0,0,2.9012,2.9058,2.9105,2.9208,2.9252,2.9333,2.9282,2.9369,2.9429,2.9412,2.9525,2.956,2.9631,2.9759,2.9817,2.9792,3.0013,2.9948,2.9956,2.9964,3.0038,3.0058,3.0076,2.9835,2.9834,2.9833,0,0,2.9144,2.9186,2.9278,2.9324,2.9392,2.9414,2.9437,2.9503,2.9524,2.9638,2.9627,2.9702,2.9839,2.989,2.9934,3.0089,3.0077,3.0114,3.0186,3.0261,3.0278,3.0293,3.035,3.0369,3.0127,3.0127,3.0127,0,2.9198,2.9316,2.9328,2.9416,2.9463,2.9449,2.9545,2.959,2.9681,2.9715,2.9684,2.9858,2.9904,3.0045,3.0082,3.0118,3.0146,3.0105,3.0274,3.029,3.0304,3.0358,3.0379,3.0131,3.013,3.013,3.013,0,2.938,2.9463,2.953,2.9616,2.967,2.9762,2.979,2.9845,2.9848,2.9874,2.9992,3.0048,3.0136,3.017,3.0174,3.0313,3.0295,3.0269,3.0215,3.0329,3.038,3.04,3.0136,3.0135,3.0134,3.0133,0,0,2.9542,2.9633,2.9658,2.9697,2.9772,2.9838,2.9931,3.0015,3.0062,3.0126,3.0206,3.0324,3.0301,3.0351,3.0361,3.0427,3.0547,3.0394,3.0396,3.0421,3.0705,3.0724,3.0747,3.054,3.0544,3.0548,3.0699,0,2.9681,2.9841,2.9855,3.0001,3.0078,3.0068,3.015,3.0206,3.0235,3.0307,3.034,3.0423,3.0386,3.0417,3.0481,3.0519,3.0605,3.0508,3.0617,3.0621,3.0599,3.0773,3.0793,3.0933,3.0719,3.0723,3.0725,0,2.9864,2.9931,3.0084,3.0149,3.0183,3.0255,3.0335,3.0403,3.0469,3.0485,3.0542,3.0544,3.0643,3.0585,3.0723,3.0657,3.0703,3.0729,3.0735,3.0746,3.0679,3.0789,3.0978,3.0999,3.0757,3.0754,3.0752,0,2.9967,3.0096,3.0204,3.0239,3.0318,3.0369,3.0405,3.0466,3.0517,3.0588,3.0622,3.0705,3.075,3.0816,3.0841,3.0796,3.0979,3.0923,3.0997,3.0997,3.1036,3.1033,3.1235,3.1065,3.1065,3.1065,3.1064,0,3.0121,3.0215,3.0252,3.0318,3.0424,3.0442,3.0547,3.0581,3.0636,3.0712,3.0709,3.0781,3.081,3.0887,3.0908,3.1021,3.1041,3.1059,3.1064,3.1059,3.1057,3.1089,3.108,3.107,3.1069,3.1068,3.1067,0,3.0253,3.0281,3.0399,3.0464,3.0483,3.0558,3.0616,3.0682,3.071,3.0806,3.0829,3.0875,3.0965,3.0997,3.1108,3.1123,3.1253,3.125,3.123,3.1231,3.1304,3.1297,3.1534,3.1567,3.1376,3.1377,3.1379,0,3.0349,3.042,3.0494,3.0543,3.058,3.066,3.0711,3.0733,3.0787,3.0868,3.0925,3.1015,3.1087,3.1234,3.1279,3.1364,3.1363,3.144,3.1376,3.137,3.1365,3.136,3.1368,3.1452,3.1454,3.1456,3.1457,0,3.0516,3.0527,3.06,3.0679,3.074,3.0804,3.0865,3.0907,3.0938,3.1,3.1091,3.1148,3.1261,3.1351,3.1439,3.148,3.1475,3.1477,3.1499,3.1495,3.1481,3.149,3.1263,3.1471,3.147,3.1469,3.1468,3.1467,3.0634,3.0697,3.0759,3.0841,3.089,3.0948,3.1013,3.105,3.1126,3.1217,3.1227,3.1326,3.1394,3.1511,3.1555,3.1636,3.1615,3.1646,3.1654,3.1662,3.1667,3.1468,3.1652,3.1652,3.1651,3.1651,3.1651,0,3.0801,3.0841,3.0916,3.1002,3.1067,3.1055,3.1124,3.118,3.1267,3.1328,3.14,3.1507,3.1595,3.1647,3.1736,3.1791,3.1791,3.1813,3.181,3.1819,3.1681,3.1653,3.1812,3.1812,3.1812,3.1812,3.1812,3.1812,3.0896,3.1003,3.1022,3.1156,3.1195,3.1291,3.1331,3.1386,3.1435,3.1554,3.1626,3.1659,3.1718,3.1812,3.1893,3.1907,3.194,3.1965,3.1976,3.1846,3.1829,3.1813,3.1787,3.1972,3.1972,3.2108,3.211,3.211]},{"header":{"parameterUnit":"m.s-1","parameterCategory":1,"la1":30.2991,"la2":30.254,"lo1":-89.0895,"lo2":-89.0444,"dy":0.0017,"dx":0.0017,"nx":28,"ny":28,"refTime":"2025-12-25T09:00:00:Z","depth":0,"parameterNumber":3,"parameterNumberName":"V-component_of_WINDS"},"data":[0,0,0,0,0,0,0,0,0,0,0,0,0,0,0,0,0,0,0,0,0,0,0,0,0,0,0,0,0,0,0,0,0,0,0,0,0,0,0,0,0,0,0,0,0,0,0,0,0,0,0,0,0,0,0,0,0,0,2.6654,2.6655,0,2.6753,2.6754,2.6756,2.6765,2.6764,2.6763,2.6762,2.6864,2.6868,2.6871,0,0,0,0,0,0,0,0,0,0,0,0,0,2.6473,2.6477,2.6654,2.6655,2.6656,2.6753,2.6755,2.6756,2.6765,2.6764,2.6763,2.6761,2.6863,2.6867,2.6872,0,0,0,0,0,0,0,0,0,0,0,0,0,2.656,2.6478,2.6654,2.6673,2.6675,2.6753,2.6755,2.6756,2.6765,2.6764,2.6762,2.6761,2.6861,2.6867,2.6872,2.6938,0,0,2.6889,2.6892,0,0,0,0,0,0,0,0,2.6555,2.6567,2.6669,2.6672,2.6675,2.6745,2.6728,2.6817,2.6766,2.6731,2.6762,2.676,2.6826,2.6834,2.6856,2.6942,2.6947,2.689,2.6893,2.6895,2.6897,0,0,0,0,0,0,0,2.6549,2.6563,2.6693,2.667,2.6674,2.6677,2.6687,2.6745,2.6786,2.6734,2.6735,2.6747,2.6827,2.6851,2.6859,2.6948,2.6889,2.6894,2.6898,2.69,2.7095,2.7097,0,0,0,0,0,0,2.6539,2.6557,2.669,2.6696,2.661,2.6681,2.6693,2.6724,2.6785,2.6793,2.6748,2.6747,2.6842,2.6852,2.6862,2.6945,2.6895,2.69,2.6904,2.7094,2.7096,2.7098,0,0,0,0,0,0,2.6536,2.6551,2.6686,2.6627,2.6645,2.6686,2.6721,2.6727,2.6751,2.6796,2.6803,2.6765,2.6841,2.6855,2.6919,2.6948,2.6903,2.6908,2.7091,2.7094,2.7097,2.7109,0,0,0,0,0,0,2.653,2.655,2.6575,2.6628,2.6648,2.6741,2.6723,2.673,2.676,2.676,2.6814,2.6821,2.6841,2.6911,2.6925,2.6955,2.6912,2.7089,2.7093,2.7096,2.7106,2.7112,2.7117,0,0,0,0,0,2.6524,2.6574,2.6576,2.6592,2.668,2.6743,2.6754,2.6776,2.6762,2.6788,2.6818,2.6819,2.6943,2.6918,2.6933,2.6966,2.7087,2.7092,2.7096,2.7104,2.7111,2.7117,0,0,0,0,0,0,2.6523,2.6581,2.6584,2.6652,2.6693,2.6744,2.6777,2.6783,2.6828,2.6825,2.6851,2.6863,2.6927,2.6953,2.6924,2.7033,2.7014,2.7021,2.7014,2.7021,2.7026,2.702,2.6917,0,0,0,0,0,2.6531,2.6577,2.6625,2.6681,2.6701,2.6736,2.6764,2.6778,2.682,2.6837,2.6871,2.6913,2.6961,2.6992,2.7039,2.7109,2.7122,2.714,2.7145,2.7149,2.7156,2.7197,2.7205,2.7112,2.7112,2.7112,0,0,2.6547,2.6585,2.6612,2.6682,2.6714,2.6762,2.675,2.6801,2.6837,2.6845,2.6909,2.6935,2.6983,2.7052,2.7083,2.7075,2.7184,2.7154,2.7157,2.7162,2.7202,2.7211,2.7219,2.7115,2.7114,2.7114,0,0,2.6602,2.6634,2.6685,2.6719,2.6769,2.6792,2.6804,2.6855,2.6873,2.6937,2.6945,2.6988,2.707,2.7105,2.7133,2.7203,2.7207,2.7217,2.7245,2.7285,2.7292,2.7299,2.7326,2.7334,2.7223,2.7223,2.7223,0,2.6616,2.6689,2.6711,2.6762,2.6793,2.6803,2.6856,2.6887,2.6949,2.6971,2.696,2.7065,2.7097,2.7175,2.7192,2.7214,2.723,2.7212,2.7289,2.7296,2.7303,2.7329,2.7338,2.7224,2.7224,2.7224,2.7224,0,2.6705,2.6755,2.679,2.6851,2.6886,2.6937,2.6968,2.7001,2.7011,2.7036,2.7102,2.7142,2.7198,2.7217,2.7227,2.7297,2.729,2.7284,2.7265,2.7313,2.7337,2.7347,2.7226,2.7226,2.7225,2.7225,0,0,2.6762,2.6835,2.6848,2.6877,2.6933,2.6972,2.7025,2.708,2.7108,2.7151,2.7196,2.7266,2.7262,2.7294,2.7308,2.7343,2.7398,2.7333,2.7335,2.7345,2.7478,2.7484,2.7495,2.74,2.7402,2.7403,2.7475,0,2.6825,2.6919,2.6941,2.7021,2.7069,2.7079,2.7125,2.7165,2.7189,2.7233,2.726,2.731,2.7299,2.7319,2.7354,2.7384,2.7425,2.7378,2.7444,2.7446,2.7433,2.7507,2.7513,2.7579,2.7485,2.7486,2.7487,0,2.6911,2.6956,2.7042,2.7094,2.7114,2.7155,2.7208,2.725,2.7296,2.7311,2.7347,2.7359,2.7415,2.7392,2.747,2.7438,2.7466,2.7485,2.7488,2.7496,2.7471,2.7519,2.76,2.761,2.7502,2.7501,2.75,0,2.6946,2.7029,2.7091,2.7115,2.7176,2.7205,2.7232,2.7276,2.7308,2.7355,2.7376,2.7428,2.7457,2.7497,2.7523,2.7503,2.76,2.7578,2.7615,2.7615,2.7636,2.7635,2.7724,2.7651,2.7651,2.7651,2.765,0,2.7015,2.7067,2.7108,2.7147,2.7207,2.7231,2.729,2.7317,2.7356,2.7401,2.7412,2.7454,2.7484,2.7531,2.7551,2.7614,2.7626,2.7641,2.7646,2.7641,2.7639,2.7661,2.7658,2.7653,2.7653,2.7652,2.7652,0,2.7065,2.7094,2.7164,2.7216,2.7231,2.7272,2.7318,2.7356,2.7381,2.7437,2.7452,2.7491,2.7546,2.7575,2.7644,2.7657,2.7728,2.773,2.7713,2.7716,2.7751,2.7748,2.7859,2.7876,2.779,2.7791,2.7791,0,2.7108,2.7148,2.7206,2.7237,2.7264,2.7313,2.7347,2.7373,2.7407,2.7463,2.7495,2.7551,2.7597,2.7685,2.7719,2.7772,2.7777,2.7812,2.7785,2.7779,2.7779,2.7777,2.7783,2.7817,2.7818,2.7818,2.7819,0,2.7181,2.7194,2.7241,2.7294,2.7334,2.7377,2.7419,2.7444,2.7477,2.7515,2.7572,2.7608,2.7678,2.7734,2.779,2.7818,2.7825,2.7827,2.7839,2.7835,2.7824,2.7832,2.7728,2.7825,2.7824,2.7824,2.7823,2.7823,2.723,2.7267,2.7314,2.7367,2.7402,2.7442,2.7481,2.7511,2.7559,2.7618,2.7631,2.7691,2.7737,2.7813,2.7843,2.7891,2.7884,2.7901,2.7905,2.7909,2.7912,2.7815,2.7901,2.7901,2.7901,2.7901,2.7901,0,2.7305,2.7336,2.7385,2.7444,2.7486,2.7488,2.7536,2.7571,2.7624,2.7666,2.7712,2.7778,2.7833,2.7872,2.7928,2.7959,2.7963,2.7973,2.7971,2.7978,2.7914,2.7899,2.7968,2.7968,2.7968,2.7968,2.7968,2.7968,2.735,2.7414,2.7433,2.7515,2.7545,2.7605,2.7632,2.7669,2.7703,2.7777,2.7822,2.7847,2.7889,2.7948,2.7999,2.8009,2.803,2.8039,2.805,2.799,2.7983,2.7976,2.7962,2.8043,2.8043,2.8111,2.8111,2.8112]}]]